This is the latest recevied weather packets stored in our database for station/object N5SOR-1. If no packets are shown the sender has not sent any weather packets the latest 10 day(s).
| Time | Temp. | Humidity | Pressure | Rain* | Wind** | Luminosity | Snow |
|---|---|---|---|---|---|---|---|
| 1777820956 | 16.67° C | 53% | 1023.1 hPa | 0 mm | - | 411 W/m² | - |
| 1777820295 | 16.67° C | 54% | 1023.3 hPa | 0 mm | - | 355 W/m² | - |
| 1777819635 | 16.11° C | 54% | 1023.2 hPa | 0 mm | - | 72 W/m² | - |
| 1777818974 | 16.11° C | 55% | 1023.1 hPa | 0 mm | - | 69 W/m² | - |
| 1777818313 | 16.11° C | 55% | 1023 hPa | 0 mm | - | 65 W/m² | - |
| 1777817653 | 15.56° C | 56% | 1023 hPa | 0 mm | - | 53 W/m² | - |
| 1777816992 | 15.56° C | 56% | 1023.1 hPa | 0 mm | - | 155 W/m² | - |
| 1777816332 | 15° C | 59% | 1022.9 hPa | 0 mm | - | 116 W/m² | - |
| 1777815671 | 15° C | 58% | 1022.8 hPa | 0 mm | - | 42 W/m² | - |
| 1777815010 | 14.44° C | 61% | 1022.7 hPa | 0 mm | - | 30 W/m² | - |
| 1777814350 | 13.89° C | 63% | 1022.8 hPa | 0 mm | - | 28 W/m² | - |
| 1777813689 | 13.33° C | 64% | 1022.7 hPa | 0 mm | - | 25 W/m² | - |
| 1777813028 | 13.33° C | 65% | 1022.6 hPa | 0 mm | - | 26 W/m² | - |
| 1777812368 | 13.33° C | 65% | 1022.5 hPa | 0 mm | - | 25 W/m² | - |
| 1777811707 | 12.78° C | 66% | 1022.4 hPa | 0 mm | - | 21 W/m² | - |
| 1777811047 | 12.78° C | 66% | 1022.6 hPa | 0 mm | - | 16 W/m² | - |
| 1777810386 | 12.78° C | 66% | 1022.4 hPa | 0 mm | - | 7 W/m² | - |
| 1777809725 | 12.78° C | 66% | 1022.4 hPa | 0 mm | - | 0 W/m² | - |
| 1777809065 | 12.78° C | 67% | 1022.2 hPa | 0 mm | - | 0 W/m² | - |
| 1777808404 | 12.78° C | 67% | 1022.1 hPa | 0 mm | - | 0 W/m² | - |
| 1777807744 | 12.78° C | 67% | 1021.9 hPa | 0 mm | - | 0 W/m² | - |
| 1777807083 | 12.78° C | 67% | 1022 hPa | 0 mm | - | 0 W/m² | - |
| 1777806422 | 12.22° C | 69% | 1022 hPa | 0 mm | - | 0 W/m² | - |
| 1777805762 | 12.22° C | 69% | 1021.9 hPa | 0 mm | - | 0 W/m² | - |
| 1777805101 | 12.22° C | 69% | 1021.9 hPa | 0 mm | - | 0 W/m² | - |
* Rain latest hour (hover to see other rain measurements)
** Current wind speed in m/s (hover to see current wind gust speed)